Location: site
(53.0000°N, 23.0500°E)
Time: 17:29:34
(UTC+01:00)

SAOCOM 1-A - Pass Details

Date: 22 January 2020
Orbit: 621 x 623 km, 97.9° (Epoch: 25 February)

Event Time Altitude Azimuth Distance (km) Brightness Sun altitude
Exits shadow 18:44:26 13° 359° (N) 1,803 ? -25.3°
Maximum altitude 18:47:58 40° 294° (WNW) 927 ? -25.9°
Drops below altitude 10° 18:52:00 10° 225° (SW) 1,991 ? -26.5°
Sets 18:54:17 0° 218° (SW) 2,893 ? -26.8°
